PGT39EA LTCG-LTFJ

Flight info

Callsign PGT39EA
Flight time 1h 32m
Altitude 36000
Route TEMEL UW71 ILHAN UT79 NAMAN
Aircraft A320/M-SDFGHIJ1LORVWY/LB1

Departure

Time 2026-04-28 19:41
Airport Trabzon International Airport (LTCG)

Arrival

Time 2026-04-28 21:14
Airport Istanbul Sabiha Gökçen International Airport (LTFJ)
Time Latitude Longitude Altitude Speed Heading
2026-04-28 19:03 40.99580 39.78034 273 ft 0 kts 202°
2026-04-28 19:33 40.99589 39.78039 111 ft 2 kts 202°
2026-04-28 19:33 40.99605 39.78047 112 ft 2 kts 202°
2026-04-28 19:33 40.99621 39.78056 112 ft 3 kts 214°
2026-04-28 19:34 40.99631 39.78066 111 ft 3 kts 239°
2026-04-28 19:34 40.99637 39.78088 113 ft 3 kts 275°
2026-04-28 19:34 40.99637 39.78094 113 ft 0 kts 277°
2026-04-28 19:36 40.99637 39.78087 113 ft 3 kts 277°
2026-04-28 19:36 40.99643 39.78066 114 ft 3 kts 291°
2026-04-28 19:36 40.99666 39.77990 114 ft 14 kts 292°
2026-04-28 19:37 40.99701 39.77876 115 ft 13 kts 292°
2026-04-28 19:37 40.99723 39.77806 112 ft 13 kts 292°
2026-04-28 19:37 40.99771 39.77650 110 ft 11 kts 292°
2026-04-28 19:37 40.99799 39.77558 109 ft 10 kts 291°
2026-04-28 19:38 40.99834 39.77495 110 ft 6 kts 326°
2026-04-28 19:38 40.99847 39.77490 110 ft 0 kts 348°
2026-04-28 19:39 40.99852 39.77489 110 ft 4 kts 351°
2026-04-28 19:40 40.99903 39.77502 110 ft 11 kts 21°
2026-04-28 19:40 40.99949 39.77533 111 ft 4 kts 53°
2026-04-28 19:40 40.99947 39.77558 111 ft 3 kts 115°
2026-04-28 19:40 40.99943 39.77570 111 ft 5 kts 112°
2026-04-28 19:41 40.99844 39.77886 107 ft 75 kts 112°
2026-04-28 19:41 40.99567 39.78790 103 ft 135 kts 112°
2026-04-28 19:41 40.99166 39.80071 467 ft 152 kts 113°
2026-04-28 19:41 40.98873 39.81422 1141 ft 155 kts 101°
2026-04-28 19:42 40.98705 39.82874 1666 ft 168 kts 97°
2026-04-28 19:42 40.98560 39.84520 1973 ft 191 kts 96°
2026-04-28 19:42 40.98409 39.86348 2363 ft 208 kts 96°
2026-04-28 19:42 40.98251 39.88316 2838 ft 223 kts 96°
2026-04-28 19:43 40.98242 39.90381 3602 ft 230 kts 76°
2026-04-28 19:43 40.99018 39.92211 4366 ft 234 kts 42°
2026-04-28 19:43 41.00451 39.93187 5163 ft 237 kts 10°
2026-04-28 19:43 41.02129 39.93383 5806 ft 248 kts
2026-04-28 19:44 41.03876 39.93357 6605 ft 252 kts 358°
2026-04-28 19:44 41.05627 39.93081 7402 ft 256 kts 343°
2026-04-28 19:44 41.07227 39.92045 8239 ft 258 kts 323°
2026-04-28 19:44 41.08526 39.90347 8858 ft 273 kts 304°
2026-04-28 19:45 41.09347 39.88008 9425 ft 285 kts 291°
2026-04-28 19:45 41.10088 39.85541 10186 ft 291 kts 292°
2026-04-28 19:45 41.10885 39.82946 10459 ft 315 kts 292°
2026-04-28 19:45 41.11748 39.80156 10676 ft 339 kts 292°
2026-04-28 19:46 41.12667 39.77200 11121 ft 351 kts 292°
2026-04-28 19:46 41.13545 39.74151 11786 ft 357 kts 285°
2026-04-28 19:46 41.13852 39.70928 12475 ft 360 kts 268°
2026-04-28 19:46 41.13410 39.67661 13189 ft 363 kts 250°
2026-04-28 19:47 41.12237 39.64688 13912 ft 367 kts 233°
2026-04-28 19:47 41.10521 39.62176 14557 ft 369 kts 227°
2026-04-28 19:47 41.09136 39.59318 15162 ft 372 kts 250°
2026-04-28 19:47 41.08706 39.55937 15778 ft 374 kts 266°
2026-04-28 19:48 41.08590 39.52484 16433 ft 376 kts 268°
2026-04-28 19:48 41.08475 39.49003 17075 ft 379 kts 267°
2026-04-28 19:48 41.08311 39.45512 17699 ft 381 kts 265°
2026-04-28 19:48 41.08091 39.41996 18320 ft 383 kts 264°
2026-04-28 19:49 41.07824 39.38469 18858 ft 386 kts 264°
2026-04-28 19:49 41.07527 39.34930 19375 ft 388 kts 263°
2026-04-28 19:49 41.07216 39.31363 19890 ft 390 kts 263°
2026-04-28 19:49 41.06903 39.27770 20413 ft 393 kts 263°
2026-04-28 19:50 41.06290 39.20592 21400 ft 397 kts 263°
2026-04-28 19:50 41.05984 39.16946 21886 ft 400 kts 263°
2026-04-28 19:50 41.05831 39.13258 22357 ft 403 kts 271°
2026-04-28 19:51 41.06103 39.09554 22831 ft 405 kts 276°
2026-04-28 19:51 41.06459 39.05844 23301 ft 408 kts 276°
2026-04-28 19:51 41.06813 39.02102 23750 ft 410 kts 276°
2026-04-28 19:51 41.07163 38.98343 24135 ft 412 kts 276°
2026-04-28 19:52 41.07510 38.94559 24519 ft 414 kts 276°
2026-04-28 19:52 41.07852 38.90767 24898 ft 416 kts 276°
2026-04-28 19:52 41.08193 38.86954 25271 ft 417 kts 275°
2026-04-28 19:52 41.08537 38.83125 25640 ft 419 kts 275°
2026-04-28 19:53 41.08884 38.79284 26014 ft 421 kts 275°
2026-04-28 19:53 41.09232 38.75426 26386 ft 423 kts 275°
2026-04-28 19:53 41.09579 38.71545 26748 ft 424 kts 275°
2026-04-28 19:53 41.09924 38.67656 27117 ft 426 kts 275°
2026-04-28 19:54 41.10263 38.63746 27478 ft 427 kts 275°
2026-04-28 19:54 41.10600 38.59823 27821 ft 429 kts 275°
2026-04-28 19:54 41.10929 38.55937 28151 ft 430 kts 275°
2026-04-28 19:54 41.11261 38.51988 28480 ft 432 kts 275°
2026-04-28 19:55 41.11593 38.48027 28799 ft 433 kts 275°
2026-04-28 19:55 41.11924 38.44048 29120 ft 435 kts 275°
2026-04-28 19:55 41.12254 38.40050 29427 ft 436 kts 275°
2026-04-28 19:55 41.12584 38.36043 29781 ft 437 kts 274°
2026-04-28 19:56 41.12911 38.32054 30242 ft 435 kts 274°
2026-04-28 19:56 41.13237 38.28072 30622 ft 433 kts 274°
2026-04-28 19:56 41.13561 38.24108 30989 ft 432 kts 274°
2026-04-28 19:56 41.13884 38.20154 31353 ft 430 kts 274°
2026-04-28 19:57 41.14207 38.16209 31716 ft 429 kts 274°
2026-04-28 19:57 41.14530 38.12282 32083 ft 428 kts 274°
2026-04-28 19:57 41.14848 38.08361 32447 ft 427 kts 274°
2026-04-28 19:57 41.15165 38.04443 32802 ft 426 kts 274°
2026-04-28 19:58 41.15480 38.00542 33141 ft 425 kts 274°
2026-04-28 19:58 41.15794 37.96652 33498 ft 424 kts 274°
2026-04-28 19:58 41.16103 37.92771 33854 ft 423 kts 274°
2026-04-28 19:58 41.16410 37.88898 34191 ft 422 kts 274°
2026-04-28 19:59 41.16719 37.85031 34483 ft 421 kts 274°
2026-04-28 19:59 41.17042 37.81160 34772 ft 421 kts 274°
2026-04-28 19:59 41.17369 37.77355 35044 ft 420 kts 274°
2026-04-28 19:59 41.17702 37.73502 35301 ft 420 kts 274°
2026-04-28 20:00 41.18033 37.69643 35554 ft 420 kts 274°
2026-04-28 20:00 41.18361 37.65790 35800 ft 420 kts 274°
2026-04-28 20:00 41.18682 37.61943 36035 ft 419 kts 274°
2026-04-28 20:01 41.19165 37.54207 36152 ft 421 kts 272°
2026-04-28 20:01 41.19643 37.46452 36154 ft 422 kts 273°
2026-04-28 20:02 41.20223 37.38699 36149 ft 422 kts 274°
2026-04-28 20:02 41.20828 37.30936 36146 ft 422 kts 274°
2026-04-28 20:03 41.21407 37.23179 36156 ft 422 kts 274°
2026-04-28 20:03 41.21991 37.15414 36151 ft 423 kts 274°
2026-04-28 20:04 41.22589 37.07687 36161 ft 423 kts 274°
2026-04-28 20:04 41.23195 36.99915 36164 ft 423 kts 274°
2026-04-28 20:05 41.23794 36.92126 36165 ft 423 kts 274°
2026-04-28 20:05 41.24382 36.84347 36164 ft 423 kts 274°
2026-04-28 20:06 41.24964 36.76567 36174 ft 423 kts 274°
2026-04-28 20:06 41.25536 36.68835 36171 ft 423 kts 274°
2026-04-28 20:07 41.26101 36.61038 36175 ft 424 kts 274°
2026-04-28 20:07 41.25891 36.53269 36172 ft 422 kts 257°
2026-04-28 20:08 41.24219 36.45816 36165 ft 421 kts 260°
2026-04-28 20:08 41.23940 36.38045 36158 ft 422 kts 268°
2026-04-28 20:09 41.23828 36.30242 36154 ft 423 kts 268°
2026-04-28 20:09 41.23717 36.22429 36144 ft 423 kts 268°
2026-04-28 20:10 41.23587 36.14607 36137 ft 424 kts 268°
2026-04-28 20:10 41.23453 36.06828 36124 ft 424 kts 268°
2026-04-28 20:11 41.23313 35.98986 36116 ft 425 kts 268°
2026-04-28 20:11 41.23171 35.91136 36112 ft 425 kts 268°
2026-04-28 20:12 41.22986 35.83277 36107 ft 425 kts 268°
2026-04-28 20:12 41.22758 35.75423 36105 ft 426 kts 267°
2026-04-28 20:13 41.22528 35.67562 36096 ft 426 kts 268°
2026-04-28 20:13 41.22300 35.59696 36094 ft 426 kts 268°
2026-04-28 20:14 41.22071 35.51872 36096 ft 426 kts 268°
2026-04-28 20:14 41.21836 35.43996 36095 ft 427 kts 268°
2026-04-28 20:15 41.21597 35.36119 36093 ft 427 kts 268°
2026-04-28 20:15 41.21354 35.28236 36081 ft 427 kts 268°
2026-04-28 20:16 41.21104 35.20354 36078 ft 427 kts 268°
2026-04-28 20:16 41.20847 35.12447 36075 ft 428 kts 268°
2026-04-28 20:17 41.20587 35.04548 36072 ft 428 kts 268°
2026-04-28 20:17 41.20320 34.96702 36064 ft 428 kts 268°
2026-04-28 20:18 41.20046 34.88798 36059 ft 429 kts 268°
2026-04-28 20:18 41.19765 34.80896 36061 ft 429 kts 268°
2026-04-28 20:19 41.19485 34.72981 36060 ft 429 kts 268°
2026-04-28 20:19 41.19200 34.65067 36062 ft 429 kts 268°
2026-04-28 20:20 41.18905 34.57139 36062 ft 429 kts 268°
2026-04-28 20:20 41.18601 34.49218 36063 ft 429 kts 268°
2026-04-28 20:21 41.18289 34.41303 36064 ft 429 kts 268°
2026-04-28 20:21 41.17984 34.33446 36065 ft 429 kts 268°
2026-04-28 20:22 41.17668 34.25534 36067 ft 429 kts 268°
2026-04-28 20:22 41.17344 34.17629 36068 ft 429 kts 268°
2026-04-28 20:23 41.17019 34.09723 36079 ft 429 kts 268°
2026-04-28 20:23 41.16692 34.01826 36072 ft 428 kts 268°
2026-04-28 20:24 41.16353 33.93933 36090 ft 428 kts 267°
2026-04-28 20:24 41.16004 33.86049 36090 ft 428 kts 268°
2026-04-28 20:25 41.15713 33.79504 36085 ft 428 kts 267°
2026-04-28 20:25 41.15357 33.71631 36104 ft 427 kts 268°
2026-04-28 20:26 41.15000 33.63763 36109 ft 427 kts 268°
2026-04-28 20:26 41.14637 33.55905 36111 ft 427 kts 268°
2026-04-28 20:27 41.14272 33.48048 36127 ft 426 kts 268°
2026-04-28 20:27 41.13909 33.40196 36122 ft 426 kts 268°
2026-04-28 20:28 41.13532 33.32405 36138 ft 426 kts 267°
2026-04-28 20:28 41.13143 33.24563 36136 ft 426 kts 267°
2026-04-28 20:29 41.12755 33.16726 36143 ft 426 kts 267°
2026-04-28 20:29 41.12364 33.08895 36148 ft 425 kts 268°
2026-04-28 20:30 41.11969 33.01061 36139 ft 425 kts 267°
2026-04-28 20:30 41.11564 32.93230 36147 ft 425 kts 267°
2026-04-28 20:31 41.11145 32.85403 36150 ft 425 kts 267°
2026-04-28 20:31 41.10731 32.77579 36154 ft 425 kts 267°
2026-04-28 20:32 41.10323 32.69807 36156 ft 425 kts 267°
2026-04-28 20:32 41.09902 32.61989 36158 ft 425 kts 267°
2026-04-28 20:33 41.09471 32.54171 36161 ft 425 kts 267°
2026-04-28 20:33 41.09030 32.46359 36161 ft 425 kts 267°
2026-04-28 20:34 41.08591 32.38548 36162 ft 425 kts 267°
2026-04-28 20:34 41.08143 32.30737 36165 ft 424 kts 267°
2026-04-28 20:35 41.07692 32.22930 36167 ft 424 kts 267°
2026-04-28 20:35 41.07241 32.15136 36166 ft 424 kts 267°
2026-04-28 20:36 41.06784 32.07388 36167 ft 424 kts 267°
2026-04-28 20:36 41.06308 31.99597 36164 ft 424 kts 267°
2026-04-28 20:37 41.05839 31.91806 36168 ft 424 kts 267°
2026-04-28 20:37 41.05369 31.84024 36169 ft 424 kts 267°
2026-04-28 20:38 41.04892 31.76245 36169 ft 423 kts 267°
2026-04-28 20:38 41.04406 31.68470 36169 ft 424 kts 267°
2026-04-28 20:39 41.03909 31.60690 36169 ft 424 kts 267°
2026-04-28 20:39 41.03407 31.52920 36169 ft 423 kts 267°
2026-04-28 20:40 41.02902 31.45157 36168 ft 423 kts 267°
2026-04-28 20:40 41.02404 31.37399 36171 ft 423 kts 267°
2026-04-28 20:41 41.01901 31.29689 36164 ft 423 kts 267°
2026-04-28 20:41 41.01385 31.21936 36166 ft 422 kts 267°
2026-04-28 20:42 41.00868 31.14186 36169 ft 422 kts 267°
2026-04-28 20:42 41.00331 31.06437 36168 ft 422 kts 267°
2026-04-28 20:42 41.00117 31.02568 36030 ft 421 kts 271°
2026-04-28 20:43 41.00304 30.98716 35777 ft 417 kts 280°
2026-04-28 20:43 41.00936 30.94968 35525 ft 416 kts 287°
2026-04-28 20:43 41.01724 30.91283 35294 ft 416 kts 287°
2026-04-28 20:43 41.02501 30.87592 35092 ft 417 kts 287°
2026-04-28 20:44 41.03267 30.83892 34776 ft 416 kts 286°
2026-04-28 20:44 41.04014 30.80245 34465 ft 416 kts 286°
2026-04-28 20:44 41.04770 30.76547 34143 ft 416 kts 286°
2026-04-28 20:44 41.05529 30.72850 33805 ft 416 kts 287°
2026-04-28 20:45 41.06514 30.69254 33491 ft 416 kts 293°
2026-04-28 20:45 41.07639 30.65668 33167 ft 417 kts 293°
2026-04-28 20:45 41.08732 30.62161 32859 ft 418 kts 293°
2026-04-28 20:45 41.09840 30.58592 32536 ft 419 kts 293°
2026-04-28 20:46 41.10946 30.55024 32225 ft 419 kts 293°
2026-04-28 20:46 41.12055 30.51445 31904 ft 420 kts 293°
2026-04-28 20:46 41.13173 30.47848 31587 ft 421 kts 293°
2026-04-28 20:46 41.14290 30.44249 31261 ft 423 kts 293°
2026-04-28 20:47 41.15404 30.40636 30945 ft 424 kts 292°
2026-04-28 20:47 41.16514 30.37014 30624 ft 425 kts 292°
2026-04-28 20:47 41.17628 30.33374 30302 ft 426 kts 292°
2026-04-28 20:47 41.18747 30.29721 29943 ft 427 kts 292°
2026-04-28 20:48 41.19868 30.26064 29617 ft 427 kts 292°
2026-04-28 20:48 41.20975 30.22458 29354 ft 414 kts 292°
2026-04-28 20:48 41.21860 30.18882 29030 ft 403 kts 284°
2026-04-28 20:48 41.22270 30.15274 28758 ft 399 kts 277°
2026-04-28 20:49 41.22558 30.11624 28483 ft 396 kts 277°
2026-04-28 20:49 41.22710 30.07975 28221 ft 397 kts 268°
2026-04-28 20:49 41.22121 30.04388 27946 ft 400 kts 251°
2026-04-28 20:49 41.20727 30.01168 27672 ft 406 kts 234°
2026-04-28 20:50 41.18623 29.98637 27408 ft 413 kts 216°
2026-04-28 20:50 41.16130 29.96712 27148 ft 415 kts 213°
2026-04-28 20:50 41.13620 29.94845 26736 ft 412 kts 213°
2026-04-28 20:50 41.11116 29.92999 26093 ft 411 kts 213°
2026-04-28 20:51 41.08613 29.91161 25471 ft 409 kts 212°
2026-04-28 20:51 41.06164 29.89358 24956 ft 405 kts 212°
2026-04-28 20:51 41.03703 29.87536 24347 ft 404 kts 213°
2026-04-28 20:52 41.00914 29.85447 23795 ft 397 kts 212°
2026-04-28 20:52 40.98512 29.83667 23175 ft 395 kts 212°
2026-04-28 20:52 40.96118 29.81904 22604 ft 392 kts 212°
2026-04-28 20:52 40.93749 29.80164 21925 ft 387 kts 212°
2026-04-28 20:53 40.89116 29.76756 20822 ft 373 kts 212°
2026-04-28 20:53 40.86871 29.75104 20359 ft 365 kts 212°
2026-04-28 20:53 40.84673 29.73489 19906 ft 358 kts 212°
2026-04-28 20:54 40.82542 29.71919 19444 ft 352 kts 212°
2026-04-28 20:54 40.80376 29.70323 18770 ft 354 kts 212°
2026-04-28 20:54 40.78206 29.68722 18085 ft 360 kts 212°
2026-04-28 20:54 40.76047 29.67131 17549 ft 359 kts 212°
2026-04-28 20:55 40.73871 29.65533 17073 ft 357 kts 212°
2026-04-28 20:55 40.71708 29.63949 16618 ft 355 kts 212°
2026-04-28 20:55 40.69557 29.62380 16173 ft 352 kts 211°
2026-04-28 20:55 40.67424 29.60822 15745 ft 350 kts 211°
2026-04-28 20:56 40.65301 29.59269 15312 ft 347 kts 211°
2026-04-28 20:56 40.63195 29.57726 14890 ft 345 kts 211°
2026-04-28 20:56 40.61102 29.56193 14479 ft 343 kts 211°
2026-04-28 20:56 40.59022 29.54669 14068 ft 341 kts 211°
2026-04-28 20:57 40.56955 29.53156 13630 ft 339 kts 211°
2026-04-28 20:57 40.54898 29.51655 13177 ft 337 kts 211°
2026-04-28 20:57 40.52847 29.50162 12712 ft 336 kts 211°
2026-04-28 20:57 40.50812 29.48684 12274 ft 334 kts 211°
2026-04-28 20:58 40.48782 29.47211 11797 ft 332 kts 211°
2026-04-28 20:58 40.46761 29.45742 11361 ft 331 kts 211°
2026-04-28 20:58 40.44752 29.44282 10920 ft 329 kts 211°
2026-04-28 20:58 40.42899 29.42588 10622 ft 320 kts 226°
2026-04-28 20:59 40.41544 29.40389 10495 ft 301 kts 242°
2026-04-28 20:59 40.40736 29.37948 10262 ft 287 kts 257°
2026-04-28 20:59 40.40452 29.35398 9852 ft 280 kts 271°
2026-04-28 20:59 40.40436 29.32846 9348 ft 279 kts 271°
2026-04-28 21:00 40.40414 29.30306 8861 ft 278 kts 271°
2026-04-28 21:00 40.40386 29.27794 8529 ft 271 kts 271°
2026-04-28 21:00 40.40355 29.25375 8280 ft 266 kts 271°
2026-04-28 21:00 40.40385 29.22982 8068 ft 258 kts 279°
2026-04-28 21:01 40.40817 29.20741 7979 ft 251 kts 294°
2026-04-28 21:01 40.41635 29.18725 7994 ft 251 kts 303°
2026-04-28 21:01 40.42543 29.16767 7992 ft 251 kts 302°
2026-04-28 21:01 40.43447 29.14807 7993 ft 251 kts 302°
2026-04-28 21:02 40.44198 29.12745 7992 ft 252 kts 289°
2026-04-28 21:02 40.44502 29.10474 7986 ft 255 kts 274°
2026-04-28 21:02 40.44391 29.08162 7957 ft 249 kts 269°
2026-04-28 21:02 40.44703 29.06029 7824 ft 233 kts 300°
2026-04-28 21:03 40.45707 29.04384 7707 ft 234 kts 322°
2026-04-28 21:03 40.47128 29.03351 7581 ft 235 kts 343°
2026-04-28 21:03 40.48742 29.03063 7461 ft 235 kts 358°
2026-04-28 21:03 40.50381 29.02979 7337 ft 235 kts 357°
2026-04-28 21:04 40.52012 29.02889 7215 ft 235 kts 357°
2026-04-28 21:04 40.53091 29.02828 7133 ft 234 kts 357°
2026-04-28 21:04 40.53641 29.02797 7057 ft 234 kts 357°
2026-04-28 21:05 40.61715 29.02343 5804 ft 229 kts 357°
2026-04-28 21:05 40.63305 29.02257 5549 ft 229 kts 358°
2026-04-28 21:06 40.64896 29.02171 5301 ft 229 kts 358°
2026-04-28 21:06 40.66485 29.02082 5052 ft 228 kts 358°
2026-04-28 21:06 40.68047 29.01993 4805 ft 227 kts 358°
2026-04-28 21:06 40.69624 29.01905 4545 ft 226 kts 358°
2026-04-28 21:07 40.71195 29.01817 4292 ft 226 kts 358°
2026-04-28 21:07 40.72759 29.01727 4074 ft 224 kts 358°
2026-04-28 21:07 40.74280 29.01641 4012 ft 215 kts 358°
2026-04-28 21:07 40.75771 29.01664 4013 ft 214 kts 11°
2026-04-28 21:08 40.77141 29.02397 4013 ft 215 kts 34°
2026-04-28 21:08 40.78186 29.03815 3680 ft 220 kts 56°
2026-04-28 21:08 40.79016 29.05557 3252 ft 226 kts 57°
2026-04-28 21:08 40.79842 29.07289 3067 ft 219 kts 57°
2026-04-28 21:09 40.80618 29.08961 3019 ft 207 kts 63°
2026-04-28 21:09 40.81226 29.10622 3021 ft 194 kts 64°
2026-04-28 21:09 40.81797 29.12177 3041 ft 185 kts 63°
2026-04-28 21:09 40.82358 29.13694 3003 ft 183 kts 63°
2026-04-28 21:10 40.82914 29.15195 2827 ft 181 kts 64°
2026-04-28 21:10 40.83467 29.16687 2599 ft 179 kts 64°
2026-04-28 21:10 40.84006 29.18140 2368 ft 174 kts 64°
2026-04-28 21:10 40.84524 29.19541 2142 ft 164 kts 64°
2026-04-28 21:11 40.85014 29.20862 1935 ft 154 kts 65°
2026-04-28 21:11 40.85314 29.21673 1780 ft 143 kts 65°
2026-04-28 21:11 40.85739 29.22824 1589 ft 136 kts 64°
2026-04-28 21:11 40.86151 29.23938 1412 ft 134 kts 65°
2026-04-28 21:12 40.86662 29.25321 1156 ft 132 kts 64°
2026-04-28 21:12 40.87063 29.26408 972 ft 131 kts 62°
2026-04-28 21:12 40.87465 29.27483 791 ft 130 kts 62°
2026-04-28 21:12 40.87731 29.28209 667 ft 129 kts 62°
2026-04-28 21:13 40.88122 29.29274 490 ft 128 kts 62°
2026-04-28 21:13 40.88514 29.30331 319 ft 128 kts 61°
2026-04-28 21:13 40.88869 29.31299 304 ft 98 kts 64°
2026-04-28 21:13 40.89092 29.31905 309 ft 55 kts 64°
2026-04-28 21:14 40.89214 29.32237 304 ft 26 kts 60°
2026-04-28 21:14 40.89332 29.32394 305 ft 21 kts 38°
2026-04-28 21:14 40.89422 29.32481 307 ft 12 kts 36°
2026-04-28 21:14 40.89454 29.32510 307 ft 4 kts 30°
2026-04-28 21:15 40.89476 29.32517 307 ft 3 kts
2026-04-28 21:15 40.89505 29.32478 308 ft 11 kts 277°
2026-04-28 21:15 40.89505 29.32381 307 ft 10 kts 302°
2026-04-28 21:15 40.89565 29.32346 307 ft 10 kts 354°
2026-04-28 21:16 40.89640 29.32317 306 ft 13 kts 333°
2026-04-28 21:16 40.89727 29.32261 310 ft 15 kts 334°
2026-04-28 21:16 40.89818 29.32202 312 ft 14 kts 334°
2026-04-28 21:16 40.89905 29.32146 313 ft 14 kts 334°
2026-04-28 21:17 40.89995 29.32088 317 ft 13 kts 334°
2026-04-28 21:17 40.90046 29.32055 321 ft 6 kts 334°
2026-04-28 21:17 40.90077 29.32045 321 ft 6 kts
2026-04-28 21:17 40.90105 29.32097 321 ft 8 kts 64°
2026-04-28 21:18 40.90133 29.32174 319 ft 11 kts 65°
2026-04-28 21:18 40.90172 29.32278 320 ft 14 kts 64°
2026-04-28 21:18 40.90217 29.32401 321 ft 16 kts 64°
2026-04-28 21:18 40.90270 29.32542 319 ft 18 kts 63°
2026-04-28 21:19 40.90327 29.32589 320 ft 10 kts 341°
2026-04-28 21:19 40.90391 29.32542 320 ft 12 kts 335°
2026-04-28 21:19 40.90478 29.32491 320 ft 15 kts 333°
2026-04-28 21:19 40.90564 29.32433 321 ft 9 kts 333°
2026-04-28 21:20 40.90609 29.32374 319 ft 10 kts 283°
2026-04-28 21:20 40.90647 29.32321 321 ft 7 kts 335°
2026-04-28 21:20 40.90684 29.32297 321 ft 6 kts 334°
2026-04-28 21:20 40.90735 29.32253 321 ft 10 kts 300°
2026-04-28 21:21 40.90720 29.32173 321 ft 9 kts 245°
2026-04-28 21:21 40.90741 29.32120 321 ft 8 kts 336°
2026-04-28 21:21 40.90804 29.32082 321 ft 10 kts 334°
2026-04-28 21:21 40.90842 29.32021 321 ft 8 kts 291°
2026-04-28 21:22 40.90881 29.31976 321 ft 7 kts 335°
2026-04-28 21:22 40.90925 29.31949 321 ft 7 kts 335°
2026-04-28 21:22 40.90945 29.31931 320 ft 2 kts 307°
2026-04-28 21:22 40.90943 29.31914 321 ft 3 kts 257°
2026-04-28 21:23 40.90935 29.31894 319 ft 2 kts 242°
2026-04-28 21:23 40.90930 29.31881 320 ft 1 kts 244°
2026-04-28 21:23 40.90927 29.31872 321 ft 0 kts 244°
2026-04-28 21:23 40.90924 29.31867 321 ft 1 kts 244°
2026-04-28 21:24 40.90924 29.31866 321 ft 0 kts 244°